FW7712 Weather Reports


time (UTC)temp
F
wind
direction
speed
knots
gust
knots
rain 1hr
in
rain 24hr
in
rain mn
in
humidity
%
barometer
mb
20260507221534 82 127 3.5 7.8 0.00 0.00 0.00 77 1015.9
20260507221015 82 138 2.6 7.8 0.00 0.00 0.00 77 1015.8
20260507220514 82 128 2.6 9.6 0.00 0.00 0.00 77 1015.8
20260507220035 82 117 5.2 9.6 0.00 0.00 0.00 76 1015.7
20260507215517 83 141 4.3 10.4 0.00 0.00 0.00 77 1015.7
20260507215018 83 130 4.3 10.4 0.00 0.00 0.00 77 1015.5
20260507214532 83 124 5.2 10.4 0.00 0.00 0.00 76 1015.5
20260507214017 83 113 4.3 9.6 0.00 0.00 0.00 76 1015.5
20260507213515 83 119 4.3 11.3 0.00 0.00 0.00 76 1015.5
20260507213042 83 94 4.3 11.3 0.00 0.00 0.00 76 1015.5
20260507212517 83 142 5.2 11.3 0.00 0.00 0.00 76 1015.5
20260507212014 82 123 5.2 8.7 0.00 0.00 0.00 74 1015.3
20260507211537 83 100 6.1 8.7 0.00 0.00 0.00 75 1015.4
20260507211016 83 143 3.5 10.4 0.00 0.00 0.00 77 1015.5
20260507210521 83 129 6.1 10.4 0.00 0.00 0.00 77 1015.2
20260507210035 83 113 4.3 10.4 0.00 0.00 0.00 78 1015.4
20260507205515 83 140 6.1 10.4 0.00 0.00 0.00 77 1015.3
20260507205014 83 88 5.2 9.6 0.00 0.00 0.00 76 1015.3
20260507204537 83 113 5.2 9.6 0.00 0.00 0.00 76 1015.3
20260507204014 83 132 5.2 9.6 0.00 0.00 0.00 76 1015.3
20260507203521 83 105 4.3 12.2 0.00 0.00 0.00 75 1015.3
20260507203035 84 110 5.2 12.2 0.00 0.00 0.00 75 1015.3
20260507202517 83 95 4.3 9.6 0.00 0.00 0.00 75 1015.4
20260507202014 83 88 6.1 10.4 0.00 0.00 0.00 75 1015.4
20260507201536 84 155 6.1 10.4 0.00 0.00 0.00 74 1015.4
20260507201019 84 138 7.0 10.4 0.00 0.00 0.00 73 1015.4
20260507200517 84 148 5.2 10.4 0.00 0.00 0.00 74 1015.4
20260507200032 84 114 6.1 10.4 0.00 0.00 0.00 73 1015.5
20260507195517 84 87 4.3 10.4 0.00 0.00 0.00 74 1015.4
20260507195015 84 125 5.2 10.4 0.00 0.00 0.00 74 1015.6
20260507194534 84 92 7.0 11.3 0.00 0.00 0.00 72 1015.6
20260507194017 84 116 5.2 11.3 0.00 0.00 0.00 74 1015.7
20260507193518 84 98 7.0 11.3 0.00 0.00 0.00 72 1015.7
20260507193032 85 120 5.2 11.3 0.00 0.00 0.00 72 1015.6
20260507192517 85 97 7.0 11.3 0.00 0.00 0.00 72 1015.7
20260507192015 85 76 6.1 11.3 0.00 0.00 0.00 72 1015.7
20260507191532 85 105 6.1 11.3 0.00 0.00 0.00 71 1015.8
20260507191014 85 80 6.1 12.2 0.00 0.00 0.00 71 1015.8
20260507190517 85 135 4.3 12.2 0.00 0.00 0.00 72 1015.8
20260507190033 85 106 7.0 12.2 0.00 0.00 0.00 72 1015.8
20260507185518 85 88 7.8 12.2 0.00 0.00 0.00 71 1015.8
20260507185017 85 103 7.0 12.2 0.00 0.00 0.00 70 1015.8
20260507184532 85 141 7.0 12.2 0.00 0.00 0.00 71 1015.8
20260507184015 85 126 6.1 12.2 0.00 0.00 0.00 72 1016.1
20260507183514 85 87 7.0 12.2 0.00 0.00 0.00 73 1015.9
20260507183041 85 90 7.8 13.9 0.00 0.00 0.00 72 1016.0
20260507182517 85 69 6.1 13.9 0.00 0.00 0.00 74 1015.9
20260507182021 85 116 7.8 12.2 0.00 0.00 0.00 73 1015.9
20260507181531 85 82 7.8 12.2 0.00 0.00 0.00 72 1016.0
20260507181015 85 115 5.2 12.2 0.00 0.00 0.00 72 1016.0
20260507180515 86 111 6.1 12.2 0.00 0.00 0.00 72 1016.0
20260507180033 86 107 7.0 13.0 0.00 0.00 0.00 72 1016.2
20260507175514 86 153 6.1 13.0 0.00 0.00 0.00 71 1016.3
20260507175017 85 119 5.2 11.3 0.00 0.00 0.00 73 1016.4
20260507174534 85 101 5.2 11.3 0.00 0.00 0.00 72 1016.5
20260507174015 85 90 5.2 11.3 0.00 0.00 0.00 73 1016.4
20260507173515 85 106 5.2 12.2 0.00 0.00 0.00 74 1016.4
20260507173040 85 142 7.0 12.2 0.00 0.00 0.00 71 1016.6
20260507172515 85 109 7.0 12.2 0.00 0.00 0.00 70 1016.6
20260507172017 85 168 6.1 10.4 0.00 0.00 0.00 71 1016.5
20260507171530 85 125 4.3 12.2 0.00 0.00 0.00 72 1016.5
20260507171015 85 115 6.1 13.9 0.00 0.00 0.00 72 1016.7
20260507170515 85 128 7.0 13.9 0.00 0.00 0.00 73 1016.7
20260507170032 85 126 6.1 11.3 0.00 0.00 0.00 72 1016.9
20260507165514 85 123 6.1 11.3 0.00 0.00 0.00 71 1017.0
20260507165014 85 128 6.1 11.3 0.00 0.00 0.00 72 1017.0
20260507164534 85 130 6.1 9.6 0.00 0.00 0.00 72 1017.0
20260507164016 85 138 4.3 9.6 0.00 0.00 0.00 73 1017.1
20260507163518 85 82 5.2 9.6 0.00 0.00 0.00 72 1017.1
20260507163033 85 150 5.2 9.6 0.00 0.00 0.00 73 1017.2
20260507162514 85 115 6.1 9.6 0.00 0.00 0.00 71 1017.3
20260507162017 85 123 5.2 10.4 0.00 0.00 0.00 73 1017.3
20260507161530 85 115 4.3 10.4 0.00 0.00 0.00 73 1017.4
20260507161018 85 115 5.2 11.3 0.00 0.00 0.00 74 1017.4
20260507160517 85 126 7.0 11.3 0.00 0.00 0.00 74 1017.4
20260507160036 85 129 4.3 12.2 0.00 0.00 0.00 73 1017.4
20260507155516 85 97 4.3 12.2 0.00 0.00 0.00 74 1017.5
20260507155019 85 113 5.2 11.3 0.00 0.00 0.00 72 1017.5
20260507154535 85 128 6.1 11.3 0.00 0.00 0.00 73 1017.6
20260507154017 85 116 7.0 11.3 0.00 0.00 0.00 74 1017.7
20260507153518 85 100 7.0 11.3 0.00 0.00 0.00 72 1017.7
20260507153032 85 134 5.2 12.2 0.00 0.00 0.00 73 1017.7
20260507152514 85 126 7.8 12.2 0.00 0.00 0.00 72 1017.8
20260507152015 85 163 5.2 11.3 0.00 0.00 0.00 73 1017.8
20260507151531 85 107 6.1 11.3 0.00 0.00 0.00 72 1017.7
20260507151018 85 112 6.1 11.3 0.00 0.00 0.00 73 1017.7
20260507150521 85 153 7.0 11.3 0.00 0.00 0.00 73 1017.7
20260507150032 85 110 5.2 11.3 0.00 0.00 0.00 75 1017.8
20260507145519 85 123 5.2 10.4 0.00 0.00 0.00 75 1017.7
20260507145014 84 125 7.0 12.2 0.00 0.00 0.00 75 1017.8
20260507144549 84 124 6.1 13.0 0.00 0.00 0.00 75 1017.7
20260507144015 84 171 6.1 13.0 0.00 0.00 0.00 75 1017.7
20260507143514 84 100 6.1 12.2 0.00 0.00 0.00 76 1017.8
20260507143034 84 134 5.2 12.2 0.00 0.00 0.00 75 1017.8
20260507142514 84 80 6.1 10.4 0.00 0.00 0.00 76 1017.9
20260507142022 84 108 6.1 10.4 0.00 0.00 0.00 75 1017.9
20260507141535 84 129 6.1 10.4 0.00 0.00 0.00 76 1017.9
20260507141014 84 165 6.1 10.4 0.00 0.00 0.00 76 1018.0
20260507140514 83 120 5.2 10.4 0.00 0.00 0.00 77 1017.9
20260507140034 83 125 5.2 10.4 0.00 0.00 0.00 77 1018.0
20260507135514 83 106 7.0 10.4 0.00 0.00 0.00 76 1018.0
20260507135018 83 86 7.8 13.0 0.00 0.00 0.00 75 1018.0
20260507134537 83 92 6.1 13.0 0.00 0.00 0.00 75 1017.9
20260507134018 84 112 6.1 13.0 0.00 0.00 0.00 75 1017.8
20260507133518 84 105 7.0 10.4 0.00 0.00 0.00 77 1017.7
20260507133036 83 84 7.0 10.4 0.00 0.00 0.00 77 1017.8
20260507132518 83 155 4.3 10.4 0.00 0.00 0.00 77 1017.6
20260507132016 82 126 4.3 10.4 0.00 0.00 0.00 79 1017.6
20260507131534 82 95 7.0 12.2 0.00 0.00 0.00 79 1017.6
20260507131018 82 98 7.8 12.2 0.00 0.00 0.00 81 1017.6
20260507130518 81 129 7.0 10.4 0.00 0.00 0.00 82 1017.7
20260507130032 81 102 4.3 10.4 0.00 0.00 0.00 83 1017.7
20260507125518 81 111 5.2 10.4 0.00 0.00 0.00 82 1017.7
20260507125017 81 87 4.3 10.4 0.00 0.00 0.00 83 1017.7
20260507124531 82 102 7.0 10.4 0.00 0.00 0.00 81 1017.6
20260507124024 82 89 5.2 10.4 0.00 0.00 0.00 78 1017.6
20260507123518 83 115 4.3 10.4 0.00 0.00 0.00 77 1017.4
20260507123037 83 88 6.1 10.4 0.00 0.00 0.00 77 1017.3
20260507122518 83 112 6.1 12.2 0.00 0.00 0.00 77 1017.3
20260507122018 83 99 6.1 12.2 0.00 0.00 0.00 78 1017.2
20260507121535 82 68 6.1 9.6 0.00 0.00 0.00 79 1017.3
20260507121018 82 119 6.1 9.6 0.00 0.00 0.00 80 1017.2
20260507120517 81 97 5.2 9.6 0.00 0.00 0.00 81 1017.2
20260507120034 81 96 5.2 9.6 0.00 0.00 0.00 82 1017.2
20260507115519 81 86 5.2 9.6 0.00 0.00 0.00 82 1017.1
20260507115019 81 138 5.2 10.4 0.00 0.00 0.00 82 1017.0
20260507114538 80 107 7.0 10.4 0.00 0.00 0.00 82 1017.1
20260507114017 80 89 6.1 11.3 0.00 0.00 0.00 82 1016.9
20260507113518 80 109 6.1 11.3 0.00 0.00 0.00 82 1016.9
20260507113038 80 76 4.3 9.6 0.00 0.00 0.00 83 1016.8
20260507112520 80 105 6.1 9.6 0.00 0.00 0.00 83 1016.7
20260507112017 81 89 5.2 10.4 0.00 0.00 0.00 82 1016.6
20260507111542 81 105 6.1 10.4 0.00 0.00 0.00 81 1016.7
20260507111017 81 73 4.3 8.7 0.00 0.00 0.00 81 1016.6
20260507110518 81 88 5.2 8.7 0.00 0.00 0.00 81 1016.6
20260507110037 81 107 5.2 11.3 0.00 0.00 0.00 81 1016.7
20260507105517 81 92 6.1 11.3 0.00 0.00 0.00 81 1016.7
20260507105017 81 44 4.3 8.7 0.00 0.00 0.00 81 1016.7
20260507103518 80 97 2.6 9.6 0.00 0.00 0.00 82 1016.6
20260507103037 80 84 3.5 9.6 0.00 0.00 0.00 82 1016.5
20260507102517 80 90 5.2 8.7 0.00 0.00 0.00 82 1016.7
20260507102016 80 97 5.2 8.7 0.00 0.00 0.00 83 1016.4
20260507101543 80 117 5.2 10.4 0.00 0.00 0.00 83 1016.6
20260507101016 80 91 7.0 10.4 0.00 0.00 0.00 83 1016.5
20260507100516 79 119 5.2 9.6 0.00 0.00 0.00 83 1016.6
20260507100035 79 95 3.5 9.6 0.00 0.00 0.00 84 1016.5
20260507095518 79 113 3.5 9.6 0.00 0.07 0.00 84 1016.6
20260507095016 79 114 5.2 8.7 0.00 0.07 0.00 84 1016.6
20260507094541 79 94 5.2 8.7 0.00 0.07 0.00 84 1016.7
20260507094016 79 114 3.5 6.1 0.00 0.07 0.00 84 1016.6
20260507093517 79 93 2.6 6.1 0.00 0.07 0.00 84 1016.6
20260507093036 79 126 1.7 7.8 0.00 0.07 0.00 85 1016.5
20260507092518 79 88 2.6 7.8 0.00 0.07 0.00 84 1016.6
20260507092017 79 96 3.5 6.1 0.00 0.07 0.00 84 1016.7
20260507091532 79 114 1.7 6.1 0.00 0.07 0.00 84 1016.8
20260507091023 79 92 1.7 6.1 0.00 0.07 0.00 84 1016.5
20260507090521 79 103 3.5 7.0 0.00 0.07 0.00 84 1016.6
20260507090035 79 89 2.6 7.0 0.00 0.07 0.00 84 1016.5
20260507085517 79 80 3.5 7.0 0.00 0.07 0.00 84 1016.5
20260507085017 79 81 1.7 6.1 0.00 0.07 0.00 84 1016.3
20260507084537 79 100 3.5 7.8 0.00 0.07 0.00 84 1016.3
20260507084018 79 104 2.6 7.8 0.00 0.07 0.00 84 1016.4
20260507083519 79 86 4.3 7.8 0.00 0.07 0.00 84 1016.3
20260507083035 79 86 3.5 7.8 0.00 0.07 0.00 84 1016.3
20260507082517 80 89 4.3 7.8 0.00 0.07 0.00 84 1016.3
20260507082018 79 107 1.7 7.0 0.00 0.07 0.00 83 1016.3
20260507081532 79 109 3.5 7.0 0.00 0.07 0.00 83 1016.3
20260507081018 79 0 1.7 5.2 0.00 0.07 0.00 83 1016.2
20260507080518 80 90 0.9 5.2 0.00 0.07 0.00 83 1016.2
20260507080037 80 86 1.7 4.3 0.00 0.07 0.00 83 1016.2
20260507075517 80 82 1.7 5.2 0.00 0.07 0.00 83 1016.3
20260507075020 80 95 1.7 6.1 0.00 0.07 0.00 82 1016.3
20260507074534 80 84 1.7 7.0 0.00 0.07 0.00 82 1016.1
20260507074017 80 74 2.6 7.0 0.00 0.07 0.00 82 1016.3
20260507073517 80 79 1.7 6.1 0.00 0.07 0.00 83 1016.4
20260507073035 80 84 2.6 7.0 0.00 0.07 0.00 82 1016.4
20260507072517 80 109 3.5 7.0 0.00 0.07 0.00 82 1016.6
20260507072016 80 81 3.5 7.0 0.00 0.07 0.00 82 1016.7
20260507071535 80 92 2.6 7.0 0.00 0.07 0.00 82 1016.8
20260507071018 80 86 1.7 5.2 0.00 0.07 0.00 82 1016.8
20260507070518 80 84 0.9 7.0 0.00 0.07 0.00 82 1016.8
20260507070035 80 77 2.6 8.7 0.00 0.07 0.00 82 1016.7
20260507065517 80 87 3.5 8.7 0.00 0.07 0.00 82 1016.7
20260507065017 80 98 2.6 7.8 0.00 0.07 0.00 82 1016.7
20260507064531 80 83 2.6 7.8 0.00 0.07 0.00 82 1016.8
20260507064017 80 95 2.6 7.0 0.00 0.07 0.00 82 1017.0
20260507063517 80 88 2.6 7.0 0.00 0.07 0.00 82 1017.0
20260507063035 80 109 3.5 7.8 0.00 0.07 0.00 83 1017.1
20260507062517 80 107 3.5 7.8 0.00 0.07 0.00 82 1017.1
20260507062017 80 92 1.7 8.7 0.00 0.07 0.00 82 1017.1
20260507061534 80 105 4.3 8.7 0.00 0.07 0.00 82 1017.2
20260507061059 80 131 2.6 8.7 0.00 0.07 0.00 82 1017.3
20260507060517 80 101 3.5 8.7 0.00 0.07 0.00 82 1017.3
20260507060048 80 85 3.5 8.7 0.00 0.07 0.00 82 1017.4
20260507055520 80 111 5.2 8.7 0.00 0.07 0.00 82 1017.4
20260507055017 80 103 4.3 9.6 0.00 0.07 0.00 82 1017.5
20260507054544 80 101 4.3 9.6 0.00 0.07 0.00 81 1017.4
20260507054018 80 89 4.3 9.6 0.00 0.07 0.00 81 1017.5
20260507053519 80 96 3.5 9.6 0.00 0.07 0.00 82 1017.6
20260507053036 80 70 6.1 9.6 0.00 0.07 0.00 82 1017.7
20260507052520 80 94 4.3 10.4 0.00 0.07 0.00 81 1017.8
20260507052018 81 82 5.2 10.4 0.00 0.07 0.00 82 1017.9
20260507051532 81 92 4.3 8.7 0.00 0.07 0.00 82 1018.0
20260507051017 81 100 5.2 8.7 0.00 0.07 0.00 82 1018.1
20260507050517 81 84 3.5 8.7 0.00 0.07 0.00 81 1018.1
20260507050038 81 82 4.3 8.7 0.00 0.07 0.00 81 1018.1
20260507045517 81 88 3.5 8.7 0.00 0.07 0.00 81 1018.3
20260507045017 81 86 2.6 8.7 0.00 0.07 0.00 81 1018.4
20260507044548 81 80 5.2 8.7 0.00 0.07 0.00 81 1018.5
20260507044017 81 65 2.6 8.7 0.00 0.07 0.00 81 1018.6
20260507043518 81 119 3.5 8.7 0.00 0.07 0.00 81 1018.6
20260507043032 81 100 4.3 9.6 0.00 0.07 0.00 82 1018.6
20260507042517 81 74 4.3 9.6 0.00 0.07 0.00 81 1018.6
20260507042018 81 102 4.3 8.7 0.00 0.07 0.00 82 1018.7
20260507041532 81 103 3.5 8.7 0.00 0.07 0.00 82 1018.7
20260507041018 81 123 4.3 7.8 0.00 0.07 0.00 81 1018.7
20260507040517 81 107 3.5 7.0 0.00 0.07 0.00 82 1018.7
20260507040039 81 94 4.3 7.8 0.00 0.07 0.00 82 1018.8
20260507035517 81 86 3.5 7.8 0.00 0.07 0.07 82 1018.9
20260507035019 81 105 4.3 10.4 0.00 0.07 0.07 82 1018.9
20260507034538 81 87 3.5 10.4 0.00 0.07 0.07 82 1018.8
20260507034017 81 93 4.3 9.6 0.00 0.07 0.07 82 1018.9
20260507033517 81 128 3.5 9.6 0.00 0.07 0.07 82 1018.9
20260507033035 80 85 5.2 11.3 0.00 0.07 0.07 83 1018.8
20260507032518 80 89 5.2 11.3 0.00 0.07 0.07 83 1018.9
20260507032017 79 112 2.6 4.3 0.00 0.07 0.07 83 1018.9
20260507031534 79 0 0.9 6.1 0.00 0.07 0.07 82 1019.0
20260507031018 79 186 1.7 6.1 0.00 0.07 0.07 82 1019.0
20260507030520 79 142 1.7 3.5 0.00 0.07 0.07 82 1019.0
20260507030032 79 165 0.9 3.5 0.00 0.07 0.07 83 1019.0
20260507025517 79 165 0.9 5.2 0.00 0.07 0.07 83 1018.9
20260507025017 79 164 1.7 5.2 0.00 0.07 0.07 83 1019.0
20260507024539 79 170 0.9 10.4 0.00 0.07 0.07 85 1018.9
20260507024018 79 144 2.6 10.4 0.00 0.07 0.07 85 1018.9
20260507023519 79 130 4.3 10.4 0.00 0.07 0.07 85 1018.9
20260507023037 79 125 2.6 8.7 0.00 0.07 0.07 84 1019.1
20260507022520 80 146 4.3 8.7 0.00 0.07 0.07 83 1018.9
20260507022017 80 129 4.3 12.2 0.00 0.07 0.07 83 1018.9
20260507021536 80 150 4.3 12.2 0.00 0.07 0.07 82 1018.8
20260507021020 81 117 7.0 12.2 0.00 0.07 0.07 81 1018.8
20260507020518 81 107 2.6 7.8 0.00 0.07 0.07 83 1018.9
20260507020043 81 107 3.5 7.0 0.00 0.07 0.07 82 1018.9
20260507015522 81 89 4.3 7.0 0.00 0.07 0.07 82 1018.9
20260507015018 81 101 2.6 6.1 0.00 0.07 0.07 82 1018.8
20260507014535 81 104 3.5 7.0 0.00 0.07 0.07 82 1018.6
20260507014021 81 101 2.6 7.0 0.00 0.07 0.07 82 1018.6
20260507013517 81 98 3.5 7.0 0.00 0.07 0.07 82 1018.5
20260507013032 81 80 3.5 7.8 0.00 0.07 0.07 82 1018.5
20260507012515 81 92 3.5 7.8 0.00 0.07 0.07 81 1018.4
20260507012015 81 89 3.5 7.8 0.00 0.07 0.07 81 1018.3
20260507011541 81 90 2.6 5.2 0.00 0.07 0.07 82 1018.3
20260507011015 81 103 1.7 5.2 0.00 0.07 0.07 81 1018.4
20260507010515 81 125 2.6 6.1 0.00 0.07 0.07 81 1018.3
20260507010040 81 128 2.6 7.0 0.00 0.07 0.07 81 1018.2
20260507005515 81 130 2.6 7.0 0.00 0.07 0.07 80 1018.2
20260507005018 81 136 2.6 5.2 0.00 0.07 0.07 82 1018.2
20260507004537 81 110 1.7 5.2 0.00 0.07 0.07 82 1018.2
20260507004016 81 130 2.6 5.2 0.00 0.07 0.07 82 1018.1
20260507003516 81 134 1.7 3.5 0.00 0.07 0.07 81 1018.0
20260507003034 81 148 1.7 3.5 0.00 0.07 0.07 80 1017.9
20260507002515 81 146 0.9 3.5 0.00 0.07 0.07 80 1018.1
20260507002019 82 146 0.9 3.5 0.00 0.07 0.07 80 1018.0
20260507001541 81 142 0.9 3.5 0.00 0.07 0.07 79 1018.0
20260507001015 81 127 1.7 6.1 0.00 0.07 0.07 79 1017.8
20260507000515 81 121 1.7 6.1 0.00 0.07 0.07 79 1017.8
20260507000034 81 127 1.7 4.3 0.00 0.07 0.07 79 1017.6
20260506235515 81 128 1.7 3.5 0.00 0.07 0.07 79 1017.6
20260506235015 81 129 1.7 3.5 0.00 0.07 0.07 79 1017.5
20260506234539 82 129 0.9 3.5 0.00 0.07 0.07 79 1017.5
20260506234016 81 0 0.9 2.6 0.00 0.07 0.07 79 1017.5
20260506233516 82 128 0.9 3.5 0.00 0.07 0.07 79 1017.4
20260506233036 82 128 0.9 3.5 0.00 0.07 0.07 79 1017.4
20260506232515 82 129 1.7 3.5 0.00 0.07 0.07 79 1017.4
20260506232015 82 0 0.0 3.5 0.00 0.07 0.07 78 1017.6
20260506231532 82 136 0.9 5.2 0.00 0.07 0.07 78 1017.3
20260506231015 82 123 1.7 5.2 0.00 0.07 0.07 78 1017.3
20260506230521 82 113 1.7 6.1 0.00 0.07 0.07 78 1017.1
20260506230040 82 124 1.7 6.1 0.00 0.07 0.07 78 1017.1
20260506225515 82 128 2.6 6.1 0.00 0.07 0.07 78 1016.8
20260506225015 82 128 2.6 7.0 0.00 0.07 0.07 79 1016.8
20260506224531 82 137 2.6 7.0 0.00 0.07 0.07 79 1016.8
20260506224015 82 141 2.6 7.0 0.00 0.07 0.07 79 1016.5
20260506223515 82 133 3.5 7.0 0.00 0.07 0.07 79 1016.5
20260506223036 82 138 2.6 5.2 0.00 0.07 0.07 79 1016.4
20260506222518 82 134 1.7 5.2 0.00 0.07 0.07 79 1016.4
20260506222015 82 139 2.6 6.1 0.00 0.07 0.07 79 1016.4